DELTA 1 DEB, 10842

Orbit data source: Space-Track

DELTA 1 DEB, 10842 is space debris in SSO originally from a launch on Thu, 29 Jul 1976 UTC launched from the Air Force Western Test Range (AFWTR). Debris objects in space refer to the collection of defunct objects orbiting the Earth. Examples of debris include non-operational satellites, rocket bodies, and fragments generated from explosions, collisions, or faulty payload assembly.

Loading next visibility...
Identifier
10842, 1976-077CN
Orbit
SSO
Country
Flag of USUS
Related business
Manufacturer
Unknown
Mission
Spacecraft
Bus & Motor
Unknown
Mass
Unknown
Launch date (UTC)
1976-07-29 (50 years ago)
Launch vehicle
Unknown
Launch site
Air Force Western Test Range (AFWTR)
Object type
Payload
Rocket body
Debris
Shape & HBR
Unknown shape, 0.1 m
Radar Cross Section
Medium (>0.1 m² and <1 m²)

Expand to show TLE details & history
Last TLE update: 10 hours ago

TLE from 10 hours ago
0 DELTA 1 DEB
1 10842U 76077CN  26126.37059573  .00000008  00000-0  27565-3 0  9994
2 10842 102.2016 284.4185 0287636 129.0953 306.3538 12.58971874149400
Epoch: 2026-05-06T08:53Z
TLE epoch observation values (Epoch: 2026-05-06T08:53:39.471Z)
Latitude
69.04831°
Longitude
-107.41577°
Altitude
1,310.148 km
Speed
7.267 km/s
True Right ascension
16h 40m 55s
True Declination
68° 56' 29"
Sunlit
Object was in daylight at epoch
Visualization orbit readout
Latitude
Unknown
Longitude
Unknown
Altitude
Unknown
Speed
Unknown
Apparent Right ascension
Unknown
Apparent Declination
Unknown
Sunlit
N/A
Visualization observer readout
Local Sidereal Time
02:59:04
Azimuth
Unknown
Elevation
Unknown
Doppler factor
Unknown
Orbital elements
Apogee altitude
1,649.189 km
Perigee altitude
1,200.311 km
Semi-major axis
7,802.887 km
Eccentricity
0.02876
Inclination
102.2016°
RAAN
284.4185°
Arg. of periapsis
129.0953°
True anomaly
303.6425°
Mean anomaly
306.3538°
Eccentric anomaly
305.00387°
Mean motion
3.14891 °/min
Orbital period
114.33 mins
BSTAR
0.00027565
Loading maneuver chart data...
Computing Atmospheric mass density...
Loading historical data...
Loading historical data...
Loading historical data...
Loading historical data...
Loading historical data...
Loading historical data...
Loading historical data...

Documentation

Showing up to 5 results
|